Regional Weather Roundup
Issued by NWS Little Rock, AR

Home | Current Version | Previous Version | Graphics & Text | Print | Product List | Glossary On
Versions: 1 2 3 4 5 6 7 8 9 10 11 12 13 14 15 16 17 18 19 20 21 22 23 24 25 26 27 28 29 30 31 32 33 34 35 36 37 38 39 40 41 42 43 44 45 46 47 48 49 50
000
ASUS44 KLZK 301205
RWRLZK

WEATHER ROUNDUP FOR ARKANSAS
NATIONAL WEATHER SERVICE LITTLE ROCK AR
600 AM CST FRI JAN 30 2015

NOTE: "FAIR" INDICATES FEW OR NO CLOUDS BELOW 12,000 FEET WITH NO
SIGNIFICANT WEATHER AND/OR OBSTRUCTIONS TO VISIBILITY.

ARZ001-003-010-029-301300-
NORTHWEST ARKANSAS

CITY           SKY/WX    TMP DP  RH WIND       PRES   REMARKS
FAYETTEVILLE   CLEAR     22  20  92 CALM      30.49R
6HR MIN TEMP:  21; 6HR MAX TEMP:  34;

FORT SMITH     CLEAR     28  23  81 CALM      30.49S
6HR MIN TEMP:  28; 6HR MAX TEMP:  41;

HARRISON       CLEAR     26  23  88 NW5       30.48S WCI  20
6HR MIN TEMP:  26; 6HR MAX TEMP:  32;

BENTONVILLE    CLEAR     27  21  80 CALM      30.49R
6HR MIN TEMP:  27; 6HR MAX TEMP:  34;

ROGERS         CLEAR     26  23  88 CALM      30.49R
6HR MIN TEMP:  24; 6HR MAX TEMP:  32;

SILOAM SPGS    CLEAR     27  18  69 CALM      30.50S
6HR MIN TEMP:  27; 6HR MAX TEMP:  32;

HIGHFILL       CLEAR     26  22  84 CALM      30.48R
6HR MIN TEMP:  25; 6HR MAX TEMP:  31;

SPRINGDALE     CLEAR     28  23  80 CALM      30.50
$$

ARZ004-005-016-301300-
NORTH CENTRAL ARKANSAS

CITY           SKY/WX    TMP DP  RH WIND       PRES   REMARKS
BATESVILLE     CLEAR     30  25  80 NW5       30.50S WCI  25
6HR MIN TEMP:  30; 6HR MAX TEMP:  37;

FLIPPIN        CLEAR     28  21  74 CALM      30.50R
6HR MIN TEMP:  28; 6HR MAX TEMP:  36;

MTN HOME       CLEAR     27  24  89 NW3       30.49R
6HR MIN TEMP:  26; 6HR MAX TEMP:  33;

$$

ARZ040-041-301300-
WEST CENTRAL ARKANSAS

CITY           SKY/WX    TMP DP  RH WIND       PRES   REMARKS
MENA           CLEAR     34  30  86 CALM      30.46R
MOUNT IDA      FAIR      28  25  88 CALM      30.44S
6HR MIN TEMP:  27; 6HR MAX TEMP:  35;

$$

ARZ009-017-025-026-028-301300-
NORTHEAST ARKANSAS

CITY           SKY/WX    TMP DP  RH WIND       PRES   REMARKS
CORNING        FAIR      30  27  86 N6        30.50R WCI  24
JONESBORO      CLEAR     28  26  92 NW5       30.49R WCI  23
6HR MIN TEMP:  28; 6HR MAX TEMP:  34;

NEWPORT        CLEAR     29  26  88 NW9       30.51R WCI  21
6HR MIN TEMP:  28; 6HR MAX TEMP:  35;

WALNUT RIDGE   CLEAR     28  23  80 NW6       30.48R WCI  22
6HR MIN TEMP:  27; 6HR MAX TEMP:  34;

BLYTHEVILLE    CLEAR     29  26  89 N7        30.47R WCI  22
6HR MIN TEMP:  29; 6HR MAX TEMP:  40;

$$

ARZ022-023-033-042-044-301300-
CENTRAL ARKANSAS

CITY           SKY/WX    TMP DP  RH WIND       PRES   REMARKS
LITTLE ROCK    CLEAR     34  26  72 N9        30.50R WCI  27
6HR MIN TEMP:  32; 6HR MAX TEMP:  38;

N LITTLE ROCK    N/A     34  29  83 N7        30.50R WCI  27
6HR MIN TEMP:  34; 6HR MAX TEMP:  39;

JACKSONVILLE   CLEAR     32  26  78 N7        30.49S WCI  26
6HR MIN TEMP:  27; 6HR MAX TEMP:  35;

SEARCY         CLEAR     26  23  88 NW3       30.52R
6HR MIN TEMP:  26; 6HR MAX TEMP:  33;

HOT SPRINGS    CLEAR     37  27  67 CALM      30.48R
6HR MIN TEMP:  34; 6HR MAX TEMP:  42;

RUSSELLVILLE   CLEAR     35  26  69 N8        30.49F WCI  29
6HR MIN TEMP:  27; 6HR MAX TEMP:  35;

CLINTON        FAIR      27  25  93 CALM      30.53R
$$

ARZ036-301300-
EAST ARKANSAS

CITY           SKY/WX    TMP DP  RH WIND       PRES   REMARKS
WEST MEMPHIS   CLEAR     33  28  81 N8        30.47R WCI  26
6HR MIN TEMP:  33; 6HR MAX TEMP:  40;

$$

ARZ050-053-066-070-073-301300-
SOUTHWEST ARKANSAS

CITY           SKY/WX    TMP DP  RH WIND       PRES   REMARKS
ARKADELPHIA    FAIR      29  29 100 CALM      30.51R
6HR MIN TEMP:  28; 6HR MAX TEMP:  42;

CAMDEN         CLEAR     30  27  86 CALM      30.49R
TEXARKANA      CLEAR     34  30  85 NE5       30.47S WCI  30
6HR MIN TEMP:  31; 6HR MAX TEMP:  44;

EL DORADO      CLEAR     36  29  75 N7        30.48R
6HR MIN TEMP:  34; 6HR MAX TEMP:  44;

DE QUEEN       CLEAR     28  27  96 CALM      30.46S FOG
6HR MIN TEMP:  28; 6HR MAX TEMP:  37;

$$

ARZ056-057-069-301300-
SOUTHEAST ARKANSAS

CITY           SKY/WX    TMP DP  RH WIND       PRES   REMARKS
PINE BLUFF     PTCLDY    35  28  75 N13       30.48R WCI  26
6HR MIN TEMP:  35; 6HR MAX TEMP:  39;

STUTTGART      FAIR      34  28  80 N10       30.48S WCI  26
6HR MIN TEMP:  34; 6HR MAX TEMP:  37;

MONTICELLO     CLEAR     37  29  72 N5        30.46R
6HR MIN TEMP:  35; 6HR MAX TEMP:  44;


$$





USA.gov is the U.S. government's official web portal to all federal, state and local government web resources and services.